La Porte, IN

9:01 PM CST on December 13, 2017 (GMT -0600)
La Porte Municipal

Weather History for KPPO - January, 2014

Change the Weather History Date:

Monday, January 13, 2014

  Actual Average (KSBN) Record (KSBN)
Temperature  
Mean Temperature 34 °F -  
Max Temperature 42 °F 29 °F 62 °F (1950)
Min Temperature 27 °F 16 °F -8 °F (1912)
Degree Days  
Heating Degree Days 30    
Moisture  
Dew Point 31 °F    
Average Humidity 74    
Maximum Humidity 91    
Minimum Humidity 64    
Precipitation  
Precipitation 0.00 in - - ()
Sea Level Pressure  
Sea Level Pressure 29.64 in    
Wind  
Wind Speed 10 mph (SW)    
Max Wind Speed 16 mph    
Max Gust Speed 22 mph    
Visibility 10 miles    
Events      
Averages and records for this station are not official NWS values.
T = Trace of Precipitation, MM = Missing Value Source: NWS Daily Summary

Daily Weather History Graph

Daily Weather History Graph

Search for Another Location

Airport or City:

Trip Planner

Search our weather history database for the weather conditions in past years. The results will help you decide how hot, cold, wet, or windy it might be!

Date:

Astronomy

Jan. 13, 2014 Rise Set
Actual Time 7:12 AM CST 4:39 PM CST
Civil Twilight 6:41 AM CST 5:10 PM CST
Nautical Twilight 6:06 AM CST 5:44 PM CST
Astronomical Twilight 5:33 AM CST 6:18 PM CST
Moon 2:54 PM CST (1/13) 5:00 AM CST (1/13)
Length of Visible Light 10h 29m
Length of Day
9h 27m
Waxing Gibbous, 95% of the Moon is Illuminated
Jan 13
Waxing Gibbous
Jan 15
Full
Jan 23
Last Quarter
Jan 30
New
Feb 6
First Quarter

Hourly Weather History & Observations

Time (CST) Temp. Windchill Dew Point Humidity Pressure Visibility Wind Dir Wind Speed Gust Speed Precip Events Conditions
12:15 AM 40.1 °F 33.2 °F 29.5 °F 66% 29.67 in 10.0 mi SSW 11.5 mph 18.4 mph N/A   Clear
12:35 AM 41.2 °F 34.5 °F 29.7 °F 64% 29.66 in 10.0 mi SSW 11.5 mph 19.6 mph N/A   Clear
12:55 AM 40.6 °F 34.3 °F 29.7 °F 65% 29.66 in 10.0 mi SSW 10.4 mph 16.1 mph N/A   Clear
1:15 AM 41.0 °F 34.7 °F 29.7 °F 64% 29.66 in 10.0 mi SSW 10.4 mph 16.1 mph N/A   Clear
1:35 AM 41.0 °F 33.5 °F 29.8 °F 64% 29.65 in 10.0 mi SSW 13.8 mph 18.4 mph N/A   Clear
1:55 AM 41.0 °F 32.8 °F 30.0 °F 65% 29.65 in 10.0 mi SSW 16.1 mph 21.9 mph N/A   Clear
2:15 AM 40.8 °F 34.1 °F 30.2 °F 66% 29.65 in 10.0 mi SSW 11.5 mph 18.4 mph N/A   Clear
2:35 AM 40.3 °F 33.4 °F 30.2 °F 67% 29.64 in 10.0 mi SSW 11.5 mph 18.4 mph N/A   Clear
2:55 AM 40.5 °F 33.2 °F 30.2 °F 67% 29.64 in 10.0 mi SW 12.7 mph 17.3 mph N/A   Clear
3:15 AM 40.5 °F 32.8 °F 30.2 °F 67% 29.63 in 10.0 mi SSW 13.8 mph - N/A   Clear
3:35 AM 40.5 °F 33.2 °F 30.2 °F 67% 29.62 in 10.0 mi SSW 12.7 mph 17.3 mph N/A   Clear
3:55 AM 40.5 °F 33.2 °F 30.4 °F 67% 29.62 in 10.0 mi SSW 12.7 mph 17.3 mph N/A   Clear
4:15 AM 40.1 °F 34.1 °F 30.7 °F 69% 29.62 in 10.0 mi SSW 9.2 mph - N/A   Clear
4:35 AM 39.9 °F 34.5 °F 30.7 °F 70% 29.62 in 10.0 mi SSW 8.1 mph - N/A   Clear
4:55 AM 39.7 °F 33.7 °F 30.7 °F 70% 29.60 in 10.0 mi SSW 9.2 mph - N/A   Clear
5:15 AM 39.7 °F 33.7 °F 30.7 °F 70% 29.60 in 10.0 mi SSW 9.2 mph - N/A   Clear
5:35 AM 39.6 °F 34.0 °F 30.7 °F 71% 29.60 in 10.0 mi SSW 8.1 mph - N/A   Clear
5:55 AM 39.6 °F 34.0 °F 30.7 °F 71% 29.60 in 10.0 mi SSW 8.1 mph - N/A   Clear
6:15 AM 39.6 °F 33.5 °F 30.9 °F 71% 29.59 in 10.0 mi SSW 9.2 mph - N/A   Clear
6:35 AM 39.6 °F 34.0 °F 31.1 °F 72% 29.59 in 10.0 mi SSW 8.1 mph - N/A   Clear
6:55 AM 39.6 °F 34.7 °F 31.1 °F 72% 29.58 in 10.0 mi SSW 6.9 mph - N/A   Clear
7:15 AM 39.9 °F 33.9 °F 31.3 °F 71% 29.59 in 10.0 mi SSW 9.2 mph - N/A   Clear
7:35 AM 39.4 °F 33.2 °F 31.5 °F 73% 29.59 in 10.0 mi SSW 9.2 mph - N/A   Scattered Clouds
7:55 AM 39.4 °F 33.8 °F 31.5 °F 73% 29.59 in 10.0 mi SW 8.1 mph - N/A   Scattered Clouds
8:15 AM 39.7 °F 33.7 °F 31.8 °F 73% 29.59 in 10.0 mi SW 9.2 mph - N/A   Mostly Cloudy
8:35 AM 40.1 °F 34.7 °F 32.0 °F 73% 29.59 in 10.0 mi SW 8.1 mph - N/A   Overcast
8:55 AM 39.9 °F 33.4 °F 32.0 °F 73% 29.60 in 10.0 mi SW 10.4 mph - N/A   Overcast
9:15 AM 40.8 °F 34.1 °F 32.0 °F 71% 29.60 in 10.0 mi SW 11.5 mph 17.3 mph N/A   Mostly Cloudy
9:35 AM 40.8 °F 33.7 °F 32.0 °F 71% 29.61 in 10.0 mi SW 12.7 mph - N/A   Mostly Cloudy
9:55 AM 40.5 °F 34.6 °F 32.2 °F 72% 29.60 in 10.0 mi SW 9.2 mph - N/A   Overcast
10:15 AM 40.1 °F 34.1 °F 32.2 °F 73% 29.60 in 10.0 mi SW 9.2 mph - N/A   Overcast
10:35 AM 40.1 °F 33.6 °F 32.4 °F 74% 29.59 in 10.0 mi SW 10.4 mph - N/A   Scattered Clouds
10:55 AM 41.0 °F 34.3 °F 32.7 °F 72% 29.60 in 10.0 mi SW 11.5 mph - N/A   Mostly Cloudy
11:15 AM 41.5 °F 34.6 °F 33.1 °F 72% 29.58 in 10.0 mi SW 12.7 mph 21.9 mph N/A   Scattered Clouds
11:35 AM 41.2 °F 33.7 °F 33.3 °F 73% 29.58 in 10.0 mi WSW 13.8 mph 18.4 mph N/A   Scattered Clouds
11:55 AM 41.9 °F 35.9 °F 33.8 °F 73% 29.57 in 10.0 mi SW 10.4 mph 19.6 mph N/A   Clear
12:15 PM 42.1 °F 34.9 °F 34.0 °F 73% 29.57 in 10.0 mi WSW 13.8 mph - N/A   Clear
12:35 PM 41.2 °F 34.5 °F 33.8 °F 75% 29.57 in 10.0 mi WSW 11.5 mph 18.4 mph N/A   Scattered Clouds
12:55 PM 41.4 °F 35.2 °F 34.0 °F 75% 29.57 in 10.0 mi WSW 10.4 mph - N/A   Scattered Clouds
1:15 PM 41.7 °F 36.7 °F 33.8 °F 73% 29.56 in 10.0 mi SW 8.1 mph - N/A   Clear
1:35 PM 41.2 °F 36.6 °F 33.4 °F 74% 29.57 in 10.0 mi WSW 6.9 mph - N/A   Clear
1:55 PM 41.2 °F 36.0 °F 33.8 °F 75% 29.58 in 10.0 mi WSW 8.1 mph - N/A   Mostly Cloudy
2:15 PM 41.9 °F 35.9 °F 33.8 °F 73% 29.59 in 10.0 mi SW 10.4 mph - N/A   Mostly Cloudy
2:35 PM 41.5 °F 36.4 °F 33.6 °F 73% 29.58 in 10.0 mi SW 8.1 mph - N/A   Clear
2:55 PM 41.7 °F 36.1 °F 33.6 °F 73% 29.59 in 10.0 mi SW 9.2 mph - N/A   Clear
3:15 PM 40.5 °F 35.1 °F 33.3 °F 75% 29.59 in 10.0 mi SW 8.1 mph - N/A   Clear
3:35 PM 41.0 °F 35.8 °F 33.4 °F 74% 29.61 in 10.0 mi WSW 8.1 mph - N/A   Clear
3:55 PM 41.5 °F 35.4 °F 32.9 °F 71% 29.62 in 10.0 mi WSW 10.4 mph - N/A   Clear
4:15 PM 40.8 °F 36.2 °F 32.0 °F 71% 29.62 in 10.0 mi SW 6.9 mph - N/A   Clear
4:35 PM 40.1 °F 34.7 °F 31.3 °F 71% 29.63 in 10.0 mi WSW 8.1 mph - N/A   Clear
4:55 PM 39.9 °F 33.4 °F 30.4 °F 69% 29.65 in 10.0 mi West 10.4 mph - N/A   Clear
5:15 PM 38.7 °F 33.6 °F 30.2 °F 72% 29.66 in 10.0 mi West 6.9 mph - N/A   Clear
5:35 PM 37.9 °F 31.5 °F 30.2 °F 74% 29.67 in 10.0 mi West 9.2 mph - N/A   Clear
5:55 PM 37.4 °F 30.8 °F 30.2 °F 75% 29.68 in 10.0 mi West 9.2 mph - N/A   Scattered Clouds
6:15 PM 37.0 °F 30.4 °F 30.2 °F 76% 29.69 in 10.0 mi West 9.2 mph - N/A   Scattered Clouds
6:35 PM 36.5 °F 29.7 °F 30.6 °F 79% 29.69 in 10.0 mi West 9.2 mph - N/A   Scattered Clouds
6:55 PM 35.6 °F 28.6 °F 30.4 °F 81% 29.70 in 10.0 mi West 9.2 mph - N/A   Scattered Clouds
7:15 PM 34.7 °F 28.8 °F 30.2 °F 84% 29.71 in 10.0 mi WSW 6.9 mph - N/A   Scattered Clouds
7:35 PM 34.7 °F 27.5 °F 30.9 °F 86% 29.71 in 10.0 mi West 9.2 mph - N/A   Mostly Cloudy
7:55 PM 35.1 °F 28.6 °F 31.1 °F 85% 29.72 in 10.0 mi West 8.1 mph - N/A   Overcast
8:15 PM 34.9 °F 29.9 °F 31.1 °F 86% 29.73 in 10.0 mi West 5.8 mph - N/A   Overcast
8:35 PM 34.2 °F 28.2 °F 30.7 °F 87% 29.74 in 7.0 mi West 6.9 mph - N/A   Overcast
8:55 PM 34.2 °F 26.2 °F 29.7 °F 84% 29.74 in 10.0 mi WNW 10.4 mph 17.3 mph N/A   Overcast
9:15 PM 33.4 °F 27.3 °F 28.2 °F 81% 29.74 in 10.0 mi WNW 6.9 mph 19.6 mph N/A   Mostly Cloudy
9:35 PM 32.4 °F 26.9 °F 27.5 °F 82% 29.75 in 10.0 mi WNW 5.8 mph - N/A   Scattered Clouds
9:55 PM 31.6 °F 25.1 °F 27.0 °F 83% 29.74 in 10.0 mi West 6.9 mph - N/A   Scattered Clouds
10:15 PM 30.2 °F 24.3 °F 26.2 °F 85% 29.75 in 10.0 mi West 5.8 mph - N/A   Scattered Clouds
10:35 PM 29.7 °F 22.8 °F 26.8 °F 89% 29.75 in 7.0 mi West 6.9 mph - N/A   Scattered Clouds
10:55 PM 28.9 °F 22.8 °F 26.2 °F 90% 29.76 in 7.0 mi West 5.8 mph - N/A   Scattered Clouds
11:15 PM 28.2 °F 21.0 °F 25.7 °F 90% 29.76 in 7.0 mi West 6.9 mph - N/A   Scattered Clouds
11:35 PM 27.9 °F 20.6 °F 25.3 °F 90% 29.76 in 7.0 mi West 6.9 mph - N/A   Scattered Clouds
11:55 PM 27.7 °F 22.4 °F 25.3 °F 91% 29.77 in 7.0 mi West 4.6 mph - N/A   Mostly Cloudy